Winnipeg, Manitoba

10:14 PM CST on February 22, 2017 (GMT -0600)
Winnipeg International Airport

Weather History for CYWG - March, 2014

Change the Weather History Date:

Sunday, March 30, 2014

  Actual Average Record
Temperature  
Mean Temperature 24 °F -  
Max Temperature 35 °F 50 °F 59 °F (1999)
Min Temperature 10 °F 28 °F 10 °F (2014)
Degree Days  
Heating Degree Days 42    
Moisture  
Dew Point 21 °F    
Average Humidity 76    
Maximum Humidity 93    
Minimum Humidity 53    
Precipitation  
Precipitation 0.00 in 0.05 in - ()
Sea Level Pressure  
Sea Level Pressure 29.94 in    
Wind  
Wind Speed 18 mph ()    
Max Wind Speed 29 mph    
Max Gust Speed 43 mph    
Visibility 15.0 miles    
Events      
Averages and records for this station are not official NWS values.
T = Trace of Precipitation, MM = Missing Value Source: Averaged Metar Reports

Daily Weather History Graph

Daily Weather History Graph

Search for Another Location

Airport or City:

Trip Planner

Search our weather history database for the weather conditions in past years. The results will help you decide how hot, cold, wet, or windy it might be!

Date:

Astronomy

Mar. 30, 2014 Rise Set
Actual Time 7:09 AM CDT 7:57 PM CDT
Civil Twilight 6:37 AM CDT 8:30 PM CDT
Nautical Twilight 5:58 AM CDT 9:09 PM CDT
Astronomical Twilight 5:17 AM CDT 9:51 PM CDT
Moon 6:56 AM CDT (3/30) 8:15 PM CDT (3/30)
Length of Visible Light 13h 53m
Length of Day
12h 47m
Waning Crescent, 0% of the Moon is Illuminated
Mar 30
Waning Crescent
Mar 30
New
Apr 7
First Quarter
Apr 15
Full
Apr 22
Last Quarter

Hourly Weather History & Observations

Time (CDT) Temp. Windchill Dew Point Humidity Pressure Visibility Wind Dir Wind Speed Gust Speed Precip Events Conditions
12:00 AM 35.6 °F 22.7 °F 30.2 °F 81% 29.68 in 15.0 mi South 28.8 mph 42.6 mph N/A   Mostly Cloudy
1:00 AM 35.6 °F 23.0 °F 30.2 °F 81% 29.68 in 15.0 mi South 27.6 mph 38.0 mph N/A   Overcast
2:00 AM 35.6 °F 24.0 °F 32.0 °F 87% 29.67 in 15.0 mi South 23.0 mph 28.8 mph N/A   Overcast
3:00 AM 35.6 °F 25.9 °F 32.0 °F 87% 29.68 in 15.0 mi SSW 16.1 mph 23.0 mph N/A   Mostly Cloudy
4:00 AM 35.6 °F 28.0 °F 32.0 °F 87% 29.68 in 15.0 mi SW 10.4 mph - N/A   Overcast
5:00 AM 33.8 °F 23.9 °F 30.2 °F 87% 29.70 in 15.0 mi WNW 15.0 mph - N/A   Partly Cloudy
6:00 AM 30.2 °F 19.3 °F 26.6 °F 86% 29.76 in 15.0 mi NW 15.0 mph - N/A   Partly Cloudy
7:00 AM 26.6 °F 14.7 °F 24.8 °F 93% 29.81 in 15.0 mi NW 15.0 mph - N/A   Partly Cloudy
8:00 AM 24.8 °F 15.3 °F 23.0 °F 93% 29.85 in 15.0 mi NNW 9.2 mph - N/A   Partly Cloudy
9:00 AM 28.4 °F 18.0 °F 24.8 °F 86% 29.89 in 15.0 mi NW 12.7 mph - N/A   Overcast
10:00 AM 30.2 °F 19.3 °F 28.4 °F 93% 29.91 in 15.0 mi NNW 15.0 mph - N/A   Overcast
11:00 AM 33.8 °F 22.5 °F 26.6 °F 75% 29.94 in 15.0 mi North 19.6 mph - N/A   Partly Cloudy
12:00 PM 33.8 °F 23.2 °F 24.8 °F 70% 29.98 in 15.0 mi North 17.3 mph - N/A   Partly Cloudy
1:00 PM 33.8 °F 23.2 °F 23.0 °F 65% 29.99 in 15.0 mi North 17.3 mph - N/A   Partly Cloudy
2:00 PM 32.0 °F 19.2 °F 24.8 °F 75% 30.01 in 15.0 mi NNE 23.0 mph - N/A   Partly Cloudy
3:00 PM 30.2 °F 17.4 °F 23.0 °F 75% 30.04 in 15.0 mi NNE 20.7 mph - N/A   Overcast
4:00 PM 30.2 °F 17.4 °F 23.0 °F 75% 30.06 in 15.0 mi North 20.7 mph - N/A   Overcast
5:00 PM 26.6 °F 11.4 °F 17.6 °F 69% 30.08 in 15.0 mi North 25.3 mph - N/A   Mostly Cloudy
6:00 PM 24.8 °F 9.3 °F 14.0 °F 64% 30.10 in 15.0 mi North 24.2 mph - N/A   Mostly Cloudy
7:00 PM 21.2 °F 4.2 °F 8.6 °F 58% 30.15 in 15.0 mi North 25.3 mph - N/A   Mostly Cloudy
8:00 PM 17.6 °F -0.3 °F 3.2 °F 53% 30.18 in 15.0 mi NNE 24.2 mph 33.4 mph N/A   Mostly Cloudy
9:00 PM 14.0 °F -4.7 °F 1.4 °F 57% 30.21 in 15.0 mi North 23.0 mph - N/A   Overcast
10:00 PM 12.2 °F -7.5 °F -0.4 °F 57% 30.22 in 15.0 mi NNE 24.2 mph 31.1 mph N/A   Overcast
11:00 PM 10.4 °F -11.0 °F -0.4 °F 62% 30.24 in 15.0 mi NNE 27.6 mph 33.4 mph N/A   Overcast